Home   Weather   Andernach   Past weeks

Flag for Germany Past Weather in Andernach, Rhineland-Palatinate, Germany — Yesterday and Last 2 Weeks

45 °F

Quite cool.

Feels Like: 42 °F
Forecast: 47 / 58 °F
Wind: 5 mph from Southwest

Location: Buechel

Current Time: Oct 28, 2016 at 4:49:19 AM

Latest Report: Oct 28, 2016 at 3:20 AM

Visibility: 0 mi

Pressure: 30.48 "Hg

Humidity: 100%

Dew Point: 45 °F

Location of AndernachLocation

Past Weather in Andernach — Graph


Andernach Temperature Yesterday

Maximum temperature yesterday: 52 °F (at 2:20 PM)
Minimum temperature yesterday: 41 °F (at 12:20 AM)
Average temperature yesterday: 46 °F

High & Low Weather Summary for the Past Weeks

High61 °F (Oct 16, 3:20 PM)100% (Oct 15, 4:20 AM)30.51 "Hg (Oct 15, 4:20 AM)
Low37 °F (Oct 23, 5:20 AM)63% (Oct 16, 2:20 PM)29.68 "Hg (Oct 14, 5:20 PM)
Average45 °F93%30.04 "Hg
* Reported Oct 13 3:20 AM — Oct 28 3:20 AM, Andernach, Weather by CustomWeather, © 2016

Note: Actual official high and low records may vary slightly from our data, if they occured in-between our weather recording intervals... More about our weather records


Andernach Weather History for the Previous 24 Hours

Scroll right to see more
Time TempWeatherWind HumidityBarometerVisibility
3:20 AM
Fri, Oct 28
45 °FQuite cool.5 mph100%30.48 "Hg0 mi
2:20 AM45 °FQuite cool.3 mph100%30.51 "Hg0 mi
1:20 AM46 °FCool.5 mph93%30.51 "Hg0 mi
12:20 AM46 °FCool.6 mph100%30.51 "Hg0 mi
11:20 PM
Thu, Oct 27
46 °FCool.6 mph100%30.51 "Hg0 mi
10:20 PM46 °FCool.6 mph100%30.51 "Hg1 mi
9:20 PM48 °FPassing clouds.6 mph94%30.51 "Hg6 mi
8:20 PM48 °FPassing clouds.6 mph94%30.51 "HgN/A
7:20 PM48 °FPassing clouds.6 mph94%30.51 "HgN/A
6:20 PM50 °FPassing clouds.5 mph88%30.51 "HgN/A
5:20 PM52 °FPartly sunny.6 mph82%30.51 "HgN/A
4:20 PM52 °FPartly sunny.7 mph82%30.51 "HgN/A
3:20 PM52 °FPartly sunny.6 mph82%30.51 "HgN/A
2:20 PM52 °FPassing clouds.8 mph82%30.51 "HgN/A
1:20 PM50 °FScattered clouds.8 mph82%30.51 "HgN/A
12:20 PM48 °FPartly sunny.7 mph87%30.51 "Hg4 mi
12:02 PM45 °FFog.7 mph93%30.51 "Hg3 mi
11:20 AM43 °FFog.6 mph93%30.51 "Hg2 mi
10:20 AM41 °FFog.5 mph100%30.51 "Hg1 mi
9:20 AM43 °FFog.5 mph93%30.51 "Hg1 mi
8:20 AM41 °FFog.5 mph93%30.51 "Hg2 mi
7:20 AM41 °FFog.5 mph100%30.48 "Hg2 mi
6:20 AM43 °FQuite cool.5 mph93%30.45 "Hg1 mi
5:20 AM43 °FQuite cool.5 mph100%30.45 "Hg2 mi
4:20 AM43 °FQuite cool.3 mph93%30.45 "Hg2 mi
Weather by CustomWeather, © 2016

See weather overviewHow to use our weather pages